Showing default

LEMUR 2 DELOITTE-1, 63259

Orbit data source: Space-Track

LEMUR 2 DELOITTE-1, 63259 is a payload satellite owned by Spire (US) in SSO that was launched on Sat, 15 Mar 2025 UTC via an FALCON 9 launch vehicle from the Air Force Western Test Range (AFWTR). Payload-class satellites include a variety of spacecraft equipped with specific instruments for various scientific and technological missions. These include communications satellites like Starlink; space stations such as the ISS; scientific satellites like the Hubble; Earth observation satellites from companies like Planet Labs, Umbra, and HawkEye 360; GPS; miniature CubeSats for education and research; and military/defense satellites.

Loading next visibility...
Identifier
63259, 2025-052BB
Orbit
SSO
Last TLE update
16 hours ago
Origin
Manufacturer
Spire/Glasgow
Mission
Operational Commercial Com/MetRO
Bus & Motor
CUBESAT 6U, Unknown motor
Mass
10 kg wet, 10 kg dry
Launch date (UTC)
2025-03-15 (4 months ago)
Launch vehicle
FALCON 9
Launch site
Air Force Western Test Range (AFWTR)
Object type
Payload
Rocket body
Debris
Shape & HBR
Box, 0.3 m
Radar Cross Section
0.080 m², Small (<0.1 m²)

Expand to show TLE details & history

TLE from 16 hours ago
0 LEMUR 2 DELOITTE-1
1 63259U 25052BB  25187.24487088  .00003485  00000-0  33561-3 0  9994
2 63259  97.7298  80.5006 0002026 129.4403 230.6997 14.93588962 16986
Epoch: 2025-07-06T05:52Z
TLE epoch observation values (Epoch: 2025-07-06T05:52:36.844Z)
Latitude
0.00007°
Longitude
67.87574°
Altitude
590.695 km
Speed
7.564 km/s
True Right ascension
05h 22m 00s
True Declination
0° 00' 00"
Sunlit
Object was in daylight at epoch
Visualization orbit readout
Latitude
49.21626°
Longitude
59.54071°
Altitude
594.249 km
Speed
7.568 km/s
Apparent Right ascension
01h 20m 04s
Apparent Declination
10° 57' 48"
Sunlit
Object is in daylight
Visualization observer readout
Local Sidereal Time
10:10:42
Azimuth
308.426° NW
Elevation
-22.844°
Doppler factor
1
Orbital elements
Apogee altitude
585.182 km
Perigee altitude
582.361 km
Semi-major axis
6,961.908 km
Eccentricity
0.0002
Inclination
97.7298°
RAAN
80.5006°
Arg. of periapsis
129.4403°
True anomaly
Unknown
Mean anomaly
230.6997°
Eccentric anomaly
Unknown
Mean motion
3.73638 °/min
Orbital period
96.35 mins
BSTAR
0.00033561
Loading maneuver chart data...
Loading SW <> Apogee altitude chart data...
Loading historical data...
Loading historical data...
Loading historical data...
Loading historical data...
Loading historical data...
Loading historical data...
Loading historical data...

LEMUR 2 DELOITTE-1 Visibility forecast

Observer location: undefined°, undefined°

Span
Click to sort rows by Start time (UTC) header in descending order
Start Az.
Max El. time (UTC)
Max El. Az.
Max El.
End time (UTC)
End Az.
5 mins2025-07-07 04:58:37.445Z51.149° ENE2025-07-07 05:00:37.445Z86.556° E21.284°2025-07-07 05:03:37.445Z142.065° SSE
5 mins2025-07-07 06:34:37.445Z328.571° NNW2025-07-07 06:36:37.445Z284.601° WNW23.74°2025-07-07 06:39:37.445Z235.235° WSW
6 mins2025-07-07 17:22:37.445Z195.863° SSW2025-07-07 17:25:37.445Z266.168° W33.719°2025-07-07 17:28:37.445Z328.483° NNW
|